Back to catalog

CZ-6A DEB

AliveSSO
NORAD 56644·DEBRIS·🇨🇳 China

Launched Nov 11, 2022 from Taiyuan Satellite Launch Center

Loading…

Next Passes (next 24 hours)

TLE

FreshSource: Space-Track

Epoch: Sep 14, 2026, 06:36 UTC

1 56644U 22151AFU 26257.27503363  .00000134  00000-0  97392-4 0  9999
2 56644  98.8377 257.5465 0040018  70.8836 289.6662 14.11308979175205

Track CZ-6A DEB in real time with AllMySat

Download on the App Store